FENGYUN 1C DEB

Satellite information

Favourite Embed

Satellite Type and Status

DEBRISIN ORBIT

Key statistics

Satellite FENGYUN 1C DEB at a glance.

Uptime

9555

Days in orbit

Revolutions

≈ 14.2

Per day

Orbit

SSO

Sun Synchronous Orbit

Inclination

98.7

Latest

Satellite identification and parameters

Extended collection of information and parameters for FENGYUN 1C DEB.

Object identification

Identified? True

Debris? True

Object name: FENGYUN 1C DEB

International designator: 1999-025AKF

Object number (NORAD): 30541

Object ID (CCSDS): 30541

Country: PEOPLES REPUBLIC OF CHINA (PRC)

Current information (Y/N): Y

RCS size: SMALL

Orbital parameters

Period: 101.252 minutes

Inclination: 98.7066 deg

SMA: 7196.082 km

Apoapsis: 831.114 km

Periapsis: 804.779 km

RAAN: 235.1325 deg

Eccentricy: 0.0018298

Argument of periapsis: 179.8088 deg

Mean anomaly: 180.3099 deg

Mean motion: 14.2219328 rev/day

Mean motion (dot): 0.00001681 rev/day2

B* drag term: 0.00077639 1/REarth

Two-line elements (TLE)

Creation date: July 5, 2025, 10:56 p.m.

Reference frame: TEME

Reference center: EARTH

Epoch: July 5, 2025, 1:51 p.m. UTC

TLE line 0: 0 FENGYUN 1C DEB

TLE line 1: 1 30541U 99025AKF 25186.57740132 .00001681 00000-0 77639-3 0 9990

TLE line 2: 2 30541 98.7066 235.1325 0018298 179.8088 180.3099 14.22193280950737

Live tracking on map

Real-time ground track for satellite FENGYUN 1C DEB.

In-orbit conjunctions

A list of the most updated potential collisions computed for object FENGYUN 1C DEB.

Target Orbit TCA Probability of collision Miss distance Type
CZ-4B DEB SSO 2025-07-03 09:56:23 0.0001222227 857.0 (m) DEBRIS
METEOR 2-8 DEB LEO 2025-02-26 17:03:23 0.0001386045 30.0 (m) DEBRIS
COSMOS 1275 DEB LEO 2025-01-05 11:55:21 0.0001352377 115.0 (m) DEBRIS

Associated space launch

Chinese polar orbiting meteorological satellite

FENGYUN 1C DEB was lifted into orbit during the mission ‘Long March 4B | Feng Yun 1C’, on board a Long March 4B space rocket.

The launch took place on May 10, 1999, 1:33 a.m. from Launch Complex 7.

For more information about the launch, click the button.

Launch to space Long March 4B | Feng Yun 1C
Long March 4B | Feng Yun 1C

Agency: N/A

Status: Launch Successful

Launch date: May 10, 1999, 1:33 a.m. UTC

Rocket: Long March 4B

Launch pad: Launch Complex 7

Location: Taiyuan Satellite Launch Center, People's Republic of China

...

Latest news about this satellite

There are no fresh news available about this satellite. Check back as we update our databases every day.


Newsletter sign-up

Weekly statistics, charts and insights to help you stay on top of the space industry.